Change the Weather History Date:

Tuesday, April 24, 2012

  Actual Average Record
Temperature  
Mean Temperature 64 °F 45 °F  
Max Temperature 83 °F 59 °F 83 °F (2012)
Min Temperature 44 °F 31 °F 15 °F (1958)
Degree Days  
Heating Degree Days 1 20  
Month to date heating degree days 442 556  
Since 1 July heating degree days 6271 6929  
Cooling Degree Days 0 0  
Month to date cooling degree days 0 0  
Year to date cooling degree days 0 0  
Growing Degree Days 14 (Base 50)    
Moisture  
Dew Point 34 °F    
Average Humidity 44    
Maximum Humidity 71    
Minimum Humidity 16    
Precipitation  
Precipitation 0.01 in 0.05 in 0.39 in (1951)
Month to date precipitation 1.00 0.97  
Year to date precipitation 2.88 2.87  
Snow  
Snow 0.00 in 0.40 in - ()
Month to date snowfall 2.7 9.8  
Since 1 July snowfall 52.4 70.1  
Snow Depth 0.00 in    
Sea Level Pressure  
Sea Level Pressure 29.76 in    
Wind  
Wind Speed 11 mph (WSW)    
Max Wind Speed 25 mph    
Max Gust Speed 45 mph    
Visibility 10 miles    
Events Rain , Thunderstorm    
T = Trace of Precipitation, MM = Missing Value Source: NWS Daily Summary

Daily Weather History Graph

Daily Weather History Graph

Search for Another Location

Airport or City:

Trip Planner

Search our weather history database for the weather conditions in past years. The results will help you decide how hot, cold, wet, or windy it might be!

Date:

Astronomy

Apr. 24, 2012 Rise Set
Actual Time 6:09 AM MDT 7:59 PM MDT
Civil Twilight 5:38 AM MDT 8:29 PM MDT
Nautical Twilight 5:02 AM MDT 9:06 PM MDT
Astronomical Twilight 4:22 AM MDT 9:46 PM MDT
Moon 8:03 AM MDT (4/24) 11:25 PM MDT (4/24)
Length of Visible Light 14h 50m
Length of Day
13h 50m
Waxing Crescent, 10% of the Moon is Illuminated
Apr 24
Waxing Crescent
Apr 29
First Quarter
May 5
Full
May 12
Last Quarter
May 20
New

Hourly Weather History & Observations

Time (MDT) Temp. Windchill Dew Point Humidity Pressure Visibility Wind Dir Wind Speed Gust Speed Precip Events Conditions
12:53 AM 55.0 °F - 24.1 °F 30% 29.79 in 10.0 mi WSW 3.5 mph - N/A   Clear
1:53 AM 57.9 °F - 26.1 °F 30% 29.75 in 10.0 mi WSW 13.8 mph - N/A   Clear
2:53 AM 53.6 °F - 26.6 °F 35% 29.96 in 10.0 mi WNW 12.7 mph - N/A   Clear
3:53 AM 52.0 °F - 28.9 °F 41% 29.78 in 10.0 mi West 8.1 mph - N/A   Clear
4:53 AM 45.0 °F 40.1 °F 28.9 °F 53% 29.80 in 10.0 mi SW 9.2 mph - N/A   Clear
5:53 AM 46.4 °F 41.9 °F 33.8 °F 62% 29.96 in 10.0 mi SW 9.2 mph - N/A   Clear
6:53 AM 50.0 °F - 33.1 °F 52% 29.80 in 10.0 mi WSW 10.4 mph - N/A   Clear
7:53 AM 57.9 °F - 34.0 °F 41% 29.83 in 10.0 mi WSW 9.2 mph - N/A   Clear
8:53 AM 66.0 °F - 34.0 °F 30% 29.81 in 10.0 mi SW 18.4 mph - N/A   Clear
9:53 AM 70.0 °F - 33.1 °F 26% 29.79 in 10.0 mi SW 18.4 mph - N/A   Clear
10:53 AM 75.0 °F - 36.0 °F 24% 29.78 in 10.0 mi SSW 13.8 mph 25.3 mph N/A   Clear
11:53 AM 79.0 °F - 35.1 °F 20% 29.74 in 10.0 mi WSW 12.7 mph 20.7 mph N/A   Clear
12:53 PM 82.0 °F - 33.1 °F 17% 29.70 in 10.0 mi West 13.8 mph 19.6 mph N/A   Clear
1:53 PM 77.0 °F - 28.0 °F 17% 29.67 in 10.0 mi WNW 6.9 mph - N/A   Clear
2:53 PM 75.9 °F - 28.9 °F 18% 29.69 in 10.0 mi SSW 10.4 mph - N/A   Clear
3:53 PM 77.0 °F - 30.9 °F 19% 29.65 in 10.0 mi SSW 13.8 mph - N/A   Clear
4:53 PM 73.9 °F - 30.9 °F 21% 29.66 in 10.0 mi South 20.7 mph - N/A   Partly Cloudy
5:53 PM 70.0 °F - 34.0 °F 27% 29.67 in 10.0 mi South 10.4 mph - 0.00 in   Scattered Clouds
6:20 PM 66.2 °F - 37.4 °F 35% 29.83 in 10.0 mi NW 25.3 mph 38.0 mph 0.01 in Thunderstorm Thunderstorm
6:41 PM 64.4 °F - 37.4 °F 37% 29.87 in 10.0 mi North 13.8 mph 33.4 mph 0.01 in Rain Light Rain
6:53 PM 68.0 °F - 36.0 °F 31% 29.71 in 10.0 mi North 13.8 mph 21.9 mph 0.01 in   Mostly Cloudy
7:53 PM 57.9 °F - 44.1 °F 60% 29.70 in 10.0 mi North 3.5 mph - N/A   Clear
8:53 PM 54.0 °F - 39.9 °F 59% 29.70 in 10.0 mi Calm Calm - N/A   Clear
9:53 PM 48.9 °F - 39.0 °F 69% 29.72 in 10.0 mi West 8.1 mph - N/A   Partly Cloudy
10:53 PM 52.0 °F - 39.9 °F 63% 29.71 in 10.0 mi WNW 9.2 mph - 0.00 in   Clear
11:53 PM 54.0 °F - 39.0 °F 57% 29.71 in 10.0 mi NNW 8.1 mph - N/A   Partly Cloudy